Regional Weather Roundup
Issued by NWS Albany, NY

Home | Current Version | Previous Version | Text Only | Print | Product List | Glossary On
Versions: 1 2 3 4 5 6 7 8 9 10 11 12 13 14 15 16 17 18 19 20 21 22 23 24 25 26 27 28 29 30 31 32 33 34 35 36 37 38 39 40 41 42 43 44 45 46 47 48 49 50
000
ASUS41 KALY 280410
RWRALY

NEW YORK STATE HOURLY WEATHER ROUNDUP
NATIONAL WEATHER SERVICE ALBANY NY
1100 PM EST THU NOV 27 2014

NOTE: "FAIR" INDICATES FEW OR NO CLOUDS BELOW 12,000 FEET WITH NO
SIGNIFICANT WEATHER AND/OR NO OBSTRUCTIONS TO VISIBILITY.

NYZ032-033-038>043-046>054-057>066-NYZ062>081-280500-
EAST


CITY           SKY/WX    TMP DP  RH WIND       PRES   REMARKS
ALBANY         LGT SNOW  29  26  89 N6        30.06S FOG     WCI  23
GLENS FALLS    LGT SNOW  27  24  89 CALM      30.05S FOG
POUGHKEEPSIE   CLOUDY    30  27  88 CALM      30.06S
NEWBURGH       CLOUDY    28  28 100 VRB5      30.05S WCI  23
MONTGOMERY     MOCLDY    30  27  88 W3        30.04S
WHITE PLAINS   MOCLDY    32  27  81 NW9       30.03R WCI  24
ISLIP          CLOUDY    36  30  79 N10       30.02R WCI  28
NEW YORK CITY  CLOUDY    36  26  67 NW15      30.06R WCI  27
CENTRAL PARK   CLOUDY    36  24  62 NW10G17   30.08R WCI  28
$$

NYZ005>009-017-018-044>046-055-056-280500-
CENTRAL


CITY           SKY/WX    TMP DP  RH WIND       PRES   REMARKS
FULTON         MOCLDY    26  19  74 W6        30.07R WCI  19
SYRACUSE       MOCLDY    26  24  92 W6        30.07S WCI  19
ROME           CLOUDY    28  26  92 CALM      30.06F
ELMIRA         LGT SNOW  29  27  92 W5        30.06S FOG     WCI  24
BINGHAMTON     CLOUDY    24  21  88 CALM      30.01S
MONTICELLO     CLEAR     21  19  93 W7        30.02R WCI  13
$$

NYZ026>034-041>043-280500-
NORTH


CITY           SKY/WX    TMP DP  RH WIND       PRES   REMARKS
WATERTOWN      CLOUDY    29  23  78 N5        30.07S WCI  24
FORT DRUM      NOT AVBL
MASSENA        FLURRIES  27  16  63 W7        30.08R WCI  19
SARANAC LAKE   LGT SNOW  21  19  92 CALM      29.94F FOG
PLATTSBURGH    CLOUDY    26  23  88 NW3       30.05S
$$

NYZ001>004-010>016-019>021-280500-
WEST


CITY           SKY/WX    TMP DP  RH WIND       PRES   REMARKS
NIAGARA FALLS  HVY SNOW  28  26  92 N6        30.12R VSB 1/4 WCI  22
BUFFALO        LGT SNOW  28  26  92 NW7       30.11R VSB 3/4 WCI  21
DUNKIRK        LGT SNOW  30  27  88 NW20G28   30.14R FOG     WCI  17
JAMESTOWN      CLOUDY    27  21  80 NW15G28   30.07R WCI  15
WELLSVILLE     CLOUDY    27  22  81 W9        30.02S WCI  18
ROCHESTER      MOCLDY    30  22  72 NW5       30.09R WCI  25
PENN YAN       CLOUDY    30  24  78 CALM      30.06S
$$

             KEY
       WCI = WIND CHILL INDEX
       VSB = VISIBILITY
       HX  = HEAT INDEX
$$



USA.gov is the U.S. government's official web portal to all federal, state and local government web resources and services.